Location: Silverdale
(47.6506°N, 122.6941°W)
Time: 05:19:53
(UTC+00:00)

Altair - Pass Details

Date: 07 October 2022
Orbit: 1501 x 1682 km, 47.2° (Epoch: 04 December)

Event Time Altitude Azimuth Distance (km) Brightness Sun altitude
Rises 14:48:18 0° 268° (W) 4,801 9.5 4.1°
Reaches altitude 10° 14:51:21 10° 269° (W) 3,839 9.0 4.6°
Maximum altitude 15:01:15 89° 182° (S) 1,661 7.9 6.2°
Drops below altitude 10° 15:11:27 10° 94° (E) 3,942 11.7 7.9°
Sets 15:14:38 0° 94° (E) 4,934 12.0 8.4°
